Regional Weather Roundup
Issued by NWS

Home | Current Version | Previous Version | Graphics & Text | Print | Product List | Glossary On
Versions: 1 2 3 4 5 6 7 8 9 10 11 12 13 14 15 16 17 18 19 20 21 22 23 24 25 26 27 28 29 30 31 32 33 34 35 36 37 38 39 40 41 42 43 44 45 46 47 48 49 50
000
ASUS45 KABQ 191901
RWRNM
NEW MEXICO REGIONAL WEATHER ROUNDUP
NATIONAL WEATHER SERVICE ALBUQUERQUE NM
100 PM MDT TUE SEP 19 2017

NOTE: "FAIR" MEANS FEW OR NO CLOUDS BELOW 12,000 FEET AGL WITH NO
       SIGNIFICANT WEATHER OR OBSTRUCTIONS TO VISION.

      THIS PRODUCT IS RELEASED AS TWO VERSIONS.  ONE VERSION NEAR
      THE TOP OF THE HOUR CONTAINING PRELIMINARY DATA FROM ALBUQUERQUE
      AND OTHER STATIONS.  A FINAL VERSION WITH ADDITIONAL DATA IS
      ISSUED ABOUT 10 MINUTES AFTER THE HOUR.

NMZ501-503-504-510>518-192000-
NORTHWEST PLATEAU/NORTHCENTRAL MOUNTAINS

CITY           SKY/WX    TMP DP  RH WIND       PRES   REMARKS
FARMINGTON     FAIR      74  22  14 SW7       29.99F
LOS ALAMOS     FAIR      73  26  17 SW14G28   30.10F
SANTA FE       FAIR      76  24  14 W18G30    30.05F
TAOS           FAIR      74  28  18 W20G30    30.07F
ANGEL FIRE     FAIR      63  27  25 W21G33    30.12F

$$
NMZ402-403-502-505>509-192000-
WESTCENTRAL MOUNTAINS/SOUTHWEST MOUNTAINS

CITY           SKY/WX    TMP DP  RH WIND       PRES   REMARKS
GALLUP         FAIR      75  15  10 SW26G37   30.09F
GRANTS         FAIR      77  15   9 W18G31    30.11F
SILVER CITY    PTSUNNY   79  49  34 W15G28    30.12F

$$
NMZ407-409-411-412-192000-
SOUTHERN DESERTS

CITY           SKY/WX    TMP DP  RH WIND       PRES   REMARKS
DEMING         PTSUNNY   85  51  31 W21G28    30.03F
LAS CRUCES     FAIR      88  44  21 SW17G29   30.05F
ALAMOGORDO     FAIR      90  41  18 SW17G28   30.00F
T OR C         FAIR      89  37  16 SW17G26   30.00F

$$
NMZ519>523-192000-
CENTRAL VALLEYS/CENTRAL HIGHLANDS

CITY           SKY/WX    TMP DP  RH WIND       PRES   REMARKS
ALBUQUERQUE    FAIR      80  32  17 SW17G24   30.02F
DOUBLE EAGLE   MOSUNNY   81  28  15 W17G30    30.05F
CLINES CORNERS FAIR      74  30  19 W30G44    30.09F
BELEN          FAIR      85  26  11 W17G24    30.00F
SOCORRO        FAIR      86  31  13 E3        29.98F

$$
NMZ524>526-539-540-192000-
SOUTHCENTRAL MOUNTAINS

CITY           SKY/WX    TMP DP  RH WIND       PRES   REMARKS
RUIDOSO        FAIR      77  37  24 SW23G31   30.13F

$$
NMZ527>531-192000-
NORTHEAST HIGHLANDS/NORTHEAST PLAINS

CITY           SKY/WX    TMP DP  RH WIND       PRES   REMARKS
LAS VEGAS      FAIR      74  24  15 SW21G28   30.01F
RATON          FAIR      75  23  14 W15       29.92S
CLAYTON        FAIR      84  22  10 SW20G28   29.83F

$$
NMZ532>537-192000-
EASTCENTRAL PLAINS

CITY           SKY/WX    TMP DP  RH WIND       PRES   REMARKS
SANTA ROSA     FAIR      86  31  13 SW18G31   29.91F
TUCUMCARI      FAIR      92  29  10 W28G37    29.83F
CANNON AFB     FAIR      88  37  17 SW23G35   29.93F
CLOVIS AIRPORT FAIR      87  41  19 SW24G36   29.92F

$$
NMZ028-029-538-192000-
SOUTHEAST PLAINS

CITY           SKY/WX    TMP DP  RH WIND       PRES   REMARKS
ROSWELL        PTSUNNY   95  43  16 SW23G29   29.88F
ARTESIA        FAIR      95  48  20 SW24G38   29.90F
CARLSBAD       FAIR      96  46  18 SW15G28   29.90F
HOBBS          SUNNY     93  46  20 SW13G21   29.94F


$$




USA.gov is the U.S. government's official web portal to all federal, state and local government web resources and services.